When you browse on this site, cookies collect data to enhance your experience and personalize the content and advertising you see.
Visit our Privacy Policy to learn more. By continuing to use the site, you agree to this use of cookies and data.
  • In Portugal
  • List of Countries
  • For 7 days
  • Water Temperature
  • Weather Map
  • Weather Widgets
  • user-avatar
    Login

    Hourly Weather Jewłach

    Today, 30 May, Saturday

    Time Temperature Precipitation Wind Pressure Humidity
    00:00 +25°C° 0.2 mm 3 mps 754 mmHg 62%
    01:00 +23°C° 0 mm 4 mps 754 mmHg 65%
    02:00 +23°C° 0 mm 5 mps 754 mmHg 68%
    03:00 +23°C° 0 mm 4 mps 754 mmHg 68%
    04:00 +23°C° 0 mm 6 mps 754 mmHg 66%
    05:00 +23°C° 0 mm 8 mps 755 mmHg 63%
    06:00 +23°C° 0 mm 9 mps 755 mmHg 61%
    07:00 +26°C° 0 mm 9 mps 755 mmHg 55%
    08:00 +28°C° 0 mm 9 mps 755 mmHg 48%
    09:00 +31°C° 0 mm 8 mps 755 mmHg 41%
    10:00 +32°C° 0 mm 7 mps 756 mmHg 38%
    11:00 +34°C° 0 mm 6 mps 756 mmHg 34%
    12:00 +36°C° 0 mm 5 mps 756 mmHg 30%
    13:00 +36°C° 0 mm 4 mps 756 mmHg 29%
    14:00 +37°C° 0 mm 3 mps 755 mmHg 27%
    15:00 +37°C° 0 mm 2 mps 755 mmHg 26%
    16:00 +36°C° 0 mm 4 mps 756 mmHg 29%
    17:00 +36°C° 0 mm 6 mps 756 mmHg 32%
    18:00 +35°C° 0 mm 8 mps 756 mmHg 35%
    19:00 +32°C° 0 mm 7 mps 757 mmHg 41%
    20:00 +29°C° 0 mm 7 mps 757 mmHg 46%
    21:00 +26°C° 0 mm 6 mps 758 mmHg 52%
    22:00 +26°C° 0 mm 6 mps 758 mmHg 53%
    23:00 +25°C° 0 mm 5 mps 758 mmHg 54%

    Tomorrow, 31 May, Sunday

    Time Temperature Precipitation Wind Pressure Humidity
    00:00 +23°C° 0 mm 4 mps 758 mmHg 55%
    01:00 +22°C° 0 mm 3 mps 759 mmHg 59%
    02:00 +21°C° 0 mm 2 mps 759 mmHg 62%
    03:00 +22°C° 0 mm 1 mps 759 mmHg 65%
    04:00 +22°C° 0 mm 1 mps 760 mmHg 63%
    05:00 +23°C° 0 mm 1 mps 760 mmHg 61%
    06:00 +23°C° 0 mm 2 mps 760 mmHg 60%
    07:00 +25°C° 0 mm 2 mps 760 mmHg 55%
    08:00 +26°C° 0 mm 3 mps 760 mmHg 50%
    09:00 +28°C° 0 mm 4 mps 760 mmHg 45%
    10:00 +29°C° 0 mm 4 mps 760 mmHg 42%
    11:00 +30°C° 0 mm 3 mps 759 mmHg 39%
    12:00 +31°C° 0 mm 3 mps 759 mmHg 36%
    13:00 +33°C° 0 mm 3 mps 759 mmHg 34%
    14:00 +34°C° 0 mm 2 mps 758 mmHg 33%
    15:00 +34°C° 0 mm 2 mps 758 mmHg 32%
    16:00 +34°C° 0 mm 2 mps 758 mmHg 33%
    17:00 +32°C° 0 mm 2 mps 758 mmHg 34%
    18:00 +32°C° 0 mm 2 mps 758 mmHg 35%
    19:00 +30°C° 0 mm 4 mps 758 mmHg 41%
    20:00 +27°C° 0 mm 5 mps 759 mmHg 46%
    21:00 +24°C° 0 mm 6 mps 759 mmHg 52%
    22:00 +23°C° 0 mm 5 mps 759 mmHg 54%
    23:00 +23°C° 0 mm 5 mps 759 mmHg 56%

    Day after tomorrow, 1 June, Monday

    Time Temperature Precipitation Wind Pressure Humidity
    00:00 +22°C° 0 mm 5 mps 759 mmHg 58%
    01:00 +21°C° 0 mm 4 mps 759 mmHg 60%
    02:00 +21°C° 0 mm 4 mps 759 mmHg 62%
    03:00 +20°C° 0 mm 3 mps 759 mmHg 65%
    04:00 +20°C° 0 mm 3 mps 758 mmHg 63%
    05:00 +21°C° 0 mm 3 mps 758 mmHg 61%
    06:00 +21°C° 0 mm 3 mps 758 mmHg 59%
    07:00 +24°C° 0 mm 3 mps 758 mmHg 53%
    08:00 +26°C° 0 mm 3 mps 758 mmHg 47%
    09:00 +28°C° 0 mm 3 mps 758 mmHg 41%
    10:00 +29°C° 0 mm 3 mps 757 mmHg 38%
    11:00 +30°C° 0 mm 3 mps 757 mmHg 35%
    12:00 +33°C° 0 mm 3 mps 756 mmHg 32%
    13:00 +34°C° 0 mm 3 mps 756 mmHg 31%
    14:00 +34°C° 0 mm 2 mps 755 mmHg 30%
    15:00 +35°C° 0 mm 2 mps 755 mmHg 28%
    16:00 +35°C° 0 mm 2 mps 755 mmHg 29%
    17:00 +35°C° 0 mm 2 mps 755 mmHg 29%
    18:00 +34°C° 0 mm 2 mps 755 mmHg 30%
    19:00 +31°C° 0 mm 2 mps 755 mmHg 35%
    20:00 +29°C° 0 mm 3 mps 755 mmHg 41%
    21:00 +26°C° 0 mm 3 mps 755 mmHg 47%
    22:00 +25°C° 0 mm 3 mps 755 mmHg 49%
    23:00 +24°C° 0 mm 3 mps 755 mmHg 52%

    2 June, Tuesday

    Time Temperature Precipitation Wind Pressure Humidity
    00:00 +22°C° 0 mm 3 mps 755 mmHg 54%
    01:00 +23°C° 0 mm 2 mps 755 mmHg 56%
    02:00 +22°C° 0 mm 1 mps 755 mmHg 59%
    03:00 +20°C° 0 mm 0 mps 755 mmHg 61%
    04:00 +20°C° 0 mm 0 mps 755 mmHg 59%
    05:00 +21°C° 0 mm 0 mps 755 mmHg 56%
    06:00 +22°C° 0 mm 0 mps 755 mmHg 54%
    07:00 +26°C° 0 mm 1 mps 754 mmHg 49%
    08:00 +28°C° 0 mm 1 mps 754 mmHg 43%
    09:00 +30°C° 0 mm 1 mps 754 mmHg 38%
    10:00 +32°C° 0 mm 1 mps 754 mmHg 35%
    11:00 +34°C° 0 mm 1 mps 753 mmHg 31%
    12:00 +35°C° 0 mm 1 mps 753 mmHg 28%
    13:00 +37°C° 0 mm 2 mps 753 mmHg 25%
    14:00 +38°C° 0 mm 2 mps 752 mmHg 23%
    15:00 +39°C° 0 mm 2 mps 752 mmHg 21%
    16:00 +37°C° 0 mm 4 mps 752 mmHg 26%
    17:00 +35°C° 0 mm 6 mps 752 mmHg 32%
    18:00 +33°C° 0 mm 7 mps 753 mmHg 37%
    19:00 +32°C° 0.1 mm 5 mps 753 mmHg 41%
    20:00 +29°C° 0.1 mm 4 mps 753 mmHg 45%
    21:00 +28°C° 0.1 mm 2 mps 753 mmHg 50%
    22:00 +27°C° 0 mm 2 mps 753 mmHg 52%
    23:00 +26°C° 0 mm 2 mps 753 mmHg 55%

    3 June, Wednesday

    Time Temperature Precipitation Wind Pressure Humidity
    00:00 +26°C° 0 mm 3 mps 753 mmHg 58%
    01:00 +25°C° 0 mm 2 mps 753 mmHg 61%
    02:00 +24°C° 0 mm 2 mps 753 mmHg 64%
    03:00 +24°C° 0 mm 1 mps 753 mmHg 67%
    04:00 +24°C° 0 mm 2 mps 753 mmHg 63%
    05:00 +25°C° 0 mm 2 mps 753 mmHg 59%
    06:00 +26°C° 0 mm 2 mps 753 mmHg 55%
    07:00 +28°C° 0 mm 3 mps 753 mmHg 49%
    08:00 +30°C° 0 mm 4 mps 753 mmHg 44%
    09:00 +33°C° 0 mm 4 mps 753 mmHg 39%
    10:00 +34°C° 0 mm 5 mps 753 mmHg 34%
    11:00 +36°C° 0 mm 5 mps 753 mmHg 29%
    12:00 +39°C° 0 mm 5 mps 753 mmHg 24%
    13:00 +40°C° 0 mm 5 mps 752 mmHg 21%
    14:00 +41°C° 0 mm 5 mps 752 mmHg 17%
    15:00 +42°C° 0 mm 5 mps 752 mmHg 14%
    16:00 +40°C° 0 mm 7 mps 752 mmHg 17%
    17:00 +38°C° 0 mm 9 mps 752 mmHg 21%
    18:00 +36°C° 0 mm 11 mps 753 mmHg 24%
    19:00 +34°C° 0 mm 10 mps 753 mmHg 27%
    20:00 +32°C° 0 mm 9 mps 754 mmHg 31%
    21:00 +31°C° 0 mm 8 mps 754 mmHg 34%
    22:00 +29°C° 0 mm 6 mps 754 mmHg 37%
    23:00 +28°C° 0 mm 5 mps 754 mmHg 41%

    4 June, Thursday

    Time Temperature Precipitation Wind Pressure Humidity
    00:00 +27°C° 0 mm 4 mps 754 mmHg 45%
    01:00 +26°C° 0 mm 3 mps 754 mmHg 48%
    02:00 +25°C° 0 mm 2 mps 754 mmHg 52%
    03:00 +24°C° 0 mm 1 mps 753 mmHg 56%
    04:00 +25°C° 0 mm 3 mps 753 mmHg 54%
    05:00 +25°C° 0 mm 4 mps 753 mmHg 53%
    06:00 +26°C° 0 mm 5 mps 753 mmHg 52%
    07:00 +27°C° 0 mm 5 mps 753 mmHg 47%
    08:00 +29°C° 0 mm 5 mps 753 mmHg 42%
    09:00 +32°C° 0 mm 6 mps 753 mmHg 37%
    10:00 +34°C° 0 mm 6 mps 753 mmHg 33%
    11:00 +35°C° 0 mm 6 mps 753 mmHg 30%
    12:00 +38°C° 0 mm 6 mps 753 mmHg 26%
    13:00 +39°C° 0 mm 6 mps 753 mmHg 24%
    14:00 +40°C° 0 mm 6 mps 753 mmHg 22%
    15:00 +40°C° 0 mm 7 mps 754 mmHg 21%
    16:00 +40°C° 0 mm 7 mps 754 mmHg 22%
    17:00 +39°C° 0 mm 7 mps 755 mmHg 22%
    18:00 +38°C° 0 mm 7 mps 755 mmHg 23%
    19:00 +34°C° 0 mm 7 mps 756 mmHg 33%
    20:00 +30°C° 0 mm 6 mps 757 mmHg 43%
    21:00 +27°C° 0 mm 6 mps 758 mmHg 53%
    22:00 +26°C° 0 mm 5 mps 758 mmHg 57%
    23:00 +25°C° 0 mm 4 mps 759 mmHg 61%
    Show more